Weather History for Pittsfield, IL

Change the Weather History Date:

Sunday, January 6, 2013

  Actual Average (KUIN) Record (KUIN)
Temperature  
Mean Temperature 31 °F 26 °F  
Max Temperature 39 °F 34 °F 66 °F (2008)
Min Temperature 23 °F 19 °F -13 °F (2014)
Degree Days  
Heating Degree Days 34 39  
Month to date heating degree days 230  
Since 1 July heating degree days 2421  
Cooling Degree Days 0 0  
Month to date cooling degree days 0  
Year to date cooling degree days 0  
Moisture  
Dew Point 23 °F    
Average Humidity 75    
Maximum Humidity 89    
Minimum Humidity 62    
Precipitation  
Precipitation 0.00 in 0.05 in 0.43 in (1998)
Month to date precipitation 0.33  
Year to date precipitation 0.33  
Sea Level Pressure  
Sea Level Pressure 30.25 in    
Wind  
Wind Speed 9 mph (West)    
Max Wind Speed 15 mph    
Max Gust Speed 24 mph    
Visibility 10 miles    
Events      
T = Trace of Precipitation, MM = Missing Value Source: NWS Daily Summary

Daily Weather History Graph

Daily Weather History Graph

Search for Another Location

Airport:

Trip Planner

Search our weather history database for the weather conditions in past years. The results will help you decide how hot, cold, wet, or windy it might be!

Date:

Astronomy

Jan. 06, 2013 Rise Set
Actual Time 7:24 AM CST 4:54 PM CST
Civil Twilight 6:54 AM CST 5:24 PM CST
Nautical Twilight 6:20 AM CST 5:58 PM CST
Astronomical Twilight 5:47 AM CST 6:30 PM CST
Moon 1:39 AM CST (1/6) 12:21 PM CST (1/6)
Length of Visible Light 10h 30m
Length of Day
9h 30m
Waning Crescent, 33% of the Moon is Illuminated
Jan 6
Waning Crescent
Jan 11
New
Jan 18
First Quarter
Jan 26
Full
Feb 3
Last Quarter

Hourly Weather History & Observations

Time (CST) Temp. Windchill Dew Point Humidity Pressure Visibility Wind Dir Wind Speed Gust Speed Precip Events Conditions
12:15 AM 39.2 °F 32.0 °F 32.0 °F 75% 30.05 in 10.0 mi WSW 11.5 mph 18.4 mph N/A   Overcast
12:35 AM 38.7 °F 30.5 °F 32.0 °F 77% 30.05 in 10.0 mi WSW 13.8 mph - N/A   Overcast
12:55 AM 38.1 °F 31.7 °F 32.0 °F 79% 30.06 in 10.0 mi West 9.2 mph - N/A   Overcast
1:15 AM 37.6 °F 30.0 °F 31.3 °F 78% 30.06 in 10.0 mi WSW 11.5 mph - N/A   Overcast
1:35 AM 36.9 °F 30.1 °F 30.7 °F 79% 30.07 in 10.0 mi West 9.2 mph 19.6 mph N/A   Overcast
1:55 AM 35.6 °F 27.5 °F 28.8 °F 76% 30.08 in 10.0 mi West 11.5 mph 21.9 mph N/A   Overcast
2:15 AM 34.3 °F 26.5 °F 27.3 °F 76% 30.09 in 10.0 mi WNW 10.4 mph 19.6 mph N/A   Mostly Cloudy
2:35 AM 34.0 °F 27.2 °F 26.4 °F 74% 30.09 in 10.0 mi West 8.1 mph - N/A   Mostly Cloudy
2:55 AM 33.8 °F 28.6 °F 26.2 °F 74% 30.09 in 10.0 mi West 5.8 mph - N/A   Overcast
3:15 AM 33.8 °F 27.0 °F 26.2 °F 74% 30.09 in 10.0 mi West 8.1 mph - N/A   Overcast
3:35 AM 33.3 °F 26.4 °F 26.4 °F 76% 30.09 in 10.0 mi West 8.1 mph - N/A   Overcast
3:55 AM 33.3 °F 25.7 °F 26.2 °F 75% 30.09 in 10.0 mi West 9.2 mph - N/A   Overcast
4:15 AM 33.1 °F 25.5 °F 26.4 °F 77% 30.09 in 10.0 mi West 9.2 mph - N/A   Overcast
4:35 AM 32.9 °F 24.7 °F 26.6 °F 78% 30.10 in 10.0 mi West 10.4 mph 16.1 mph N/A   Overcast
4:55 AM 32.9 °F 24.1 °F 26.4 °F 77% 30.11 in 10.0 mi West 11.5 mph - N/A   Overcast
5:15 AM 32.2 °F 22.7 °F 25.3 °F 76% 30.12 in 10.0 mi WNW 12.7 mph 19.6 mph N/A   Overcast
5:35 AM 32.0 °F 22.1 °F 24.8 °F 75% 30.13 in 10.0 mi WNW 13.8 mph - N/A   Overcast
5:55 AM 31.5 °F 21.4 °F 24.4 °F 75% 30.14 in 10.0 mi WNW 13.8 mph 24.2 mph N/A   Overcast
6:15 AM 31.3 °F 21.1 °F 23.9 °F 74% 30.15 in 10.0 mi West 13.8 mph 20.7 mph N/A   Overcast
6:35 AM 30.7 °F 21.4 °F 23.0 °F 73% 30.16 in 10.0 mi WNW 11.5 mph 24.2 mph N/A   Overcast
6:55 AM 30.6 °F 23.1 °F 23.4 °F 75% 30.17 in 10.0 mi WNW 8.1 mph - N/A   Overcast
7:15 AM 30.2 °F 20.2 °F 23.0 °F 75% 30.18 in 10.0 mi WNW 12.7 mph 21.9 mph N/A   Overcast
7:35 AM 30.0 °F 19.1 °F 23.5 °F 77% 30.19 in 7.0 mi NW 15.0 mph 20.7 mph N/A   Overcast
7:55 AM 29.3 °F 19.1 °F 23.0 °F 77% 30.20 in 7.0 mi WNW 12.7 mph 18.4 mph N/A   Overcast
8:15 AM 28.4 °F 19.7 °F 23.0 °F 80% 30.21 in 7.0 mi WNW 9.2 mph 20.7 mph N/A   Overcast
8:35 AM 28.4 °F 18.0 °F 21.7 °F 76% 30.22 in 7.0 mi West 12.7 mph 21.9 mph N/A   Overcast
8:55 AM 27.9 °F 17.8 °F 20.8 °F 75% 30.23 in 7.0 mi WNW 11.5 mph 20.7 mph N/A   Scattered Clouds
9:15 AM 28.0 °F 17.5 °F 20.3 °F 73% 30.25 in 10.0 mi WNW 12.7 mph 20.7 mph N/A   Clear
9:35 AM 28.0 °F 16.5 °F 20.7 °F 74% 30.26 in 7.0 mi WNW 15.0 mph 23.0 mph N/A   Clear
9:55 AM 28.6 °F 18.7 °F 21.4 °F 74% 30.27 in 7.0 mi WNW 11.5 mph 20.7 mph N/A   Clear
10:15 AM 29.1 °F 18.4 °F 21.7 °F 74% 30.28 in 10.0 mi West 13.8 mph 23.0 mph N/A   Scattered Clouds
10:35 AM 28.8 °F 18.4 °F 21.4 °F 74% 30.28 in 10.0 mi WNW 12.7 mph 21.9 mph N/A   Mostly Cloudy
10:55 AM 29.1 °F 20.0 °F 21.4 °F 73% 30.28 in 10.0 mi WNW 10.4 mph - N/A   Scattered Clouds
11:15 AM 30.2 °F 21.3 °F 21.2 °F 69% 30.28 in 10.0 mi WNW 10.4 mph - N/A   Clear
11:35 AM 29.8 °F 19.8 °F 21.7 °F 72% 30.27 in 10.0 mi West 12.7 mph 17.3 mph N/A   Clear
11:55 AM 30.4 °F 21.5 °F 22.3 °F 72% 30.27 in 10.0 mi West 10.4 mph - N/A   Scattered Clouds
12:15 PM 30.7 °F 22.0 °F 21.9 °F 70% 30.28 in 10.0 mi WNW 10.4 mph 17.3 mph N/A   Clear
12:35 PM 30.6 °F 21.8 °F 21.6 °F 69% 30.28 in 10.0 mi WNW 10.4 mph - N/A   Clear
12:55 PM 31.1 °F 21.9 °F 22.1 °F 69% 30.28 in 10.0 mi WNW 11.5 mph - N/A   Clear
1:15 PM 31.3 °F 22.1 °F 22.3 °F 69% 30.28 in 10.0 mi West 11.5 mph - N/A   Clear
1:35 PM 31.8 °F 22.8 °F 22.8 °F 69% 30.28 in 10.0 mi West 11.5 mph - N/A   Clear
1:55 PM 32.0 °F 24.2 °F 22.1 °F 67% 30.29 in 10.0 mi West 9.2 mph 19.6 mph N/A   Clear
2:15 PM 32.0 °F 25.6 °F 21.4 °F 65% 30.30 in 10.0 mi WNW 6.9 mph - N/A   Clear
2:35 PM 32.2 °F 23.2 °F 20.7 °F 63% 30.30 in 10.0 mi WNW 11.5 mph - N/A   Clear
2:55 PM 32.4 °F 26.9 °F 21.6 °F 64% 30.30 in 10.0 mi West 5.8 mph - N/A   Clear
3:15 PM 32.4 °F 25.3 °F 20.8 °F 63% 30.31 in 10.0 mi WNW 8.1 mph - N/A   Clear
3:35 PM 32.4 °F 26.9 °F 20.8 °F 63% 30.32 in 10.0 mi West 5.8 mph - N/A   Clear
3:55 PM 32.4 °F 26.0 °F 20.7 °F 62% 30.33 in 10.0 mi West 6.9 mph - N/A   Clear
4:15 PM 32.2 °F 26.7 °F 20.7 °F 63% 30.33 in 10.0 mi West 5.8 mph - N/A   Clear
4:35 PM 32.0 °F 26.4 °F 20.8 °F 63% 30.33 in 10.0 mi West 5.8 mph - N/A   Clear
4:55 PM 31.3 °F 26.6 °F 21.7 °F 68% 30.33 in 10.0 mi WSW 4.6 mph - N/A   Clear
5:15 PM 30.6 °F 27.1 °F 21.2 °F 68% 30.34 in 10.0 mi WSW 3.5 mph - N/A   Clear
5:35 PM 30.2 °F - 21.0 °F 69% 30.35 in 10.0 mi Calm Calm - N/A   Clear
5:55 PM 30.0 °F - 21.4 °F 70% 30.35 in 10.0 mi Calm Calm - N/A   Clear
6:15 PM 29.3 °F - 21.6 °F 73% 30.36 in 10.0 mi Calm Calm - N/A   Clear
6:35 PM 28.0 °F 24.2 °F 22.3 °F 79% 30.36 in 10.0 mi SSW 3.5 mph - N/A   Clear
6:55 PM 27.1 °F 21.8 °F 21.7 °F 80% 30.36 in 10.0 mi SW 4.6 mph - N/A   Clear
7:15 PM 27.5 °F 22.2 °F 21.2 °F 77% 30.36 in 10.0 mi SW 4.6 mph - N/A   Clear
7:35 PM 27.5 °F 22.2 °F 21.6 °F 78% 30.36 in 10.0 mi SW 4.6 mph - N/A   Clear
7:55 PM 27.1 °F 21.8 °F 21.0 °F 78% 30.36 in 10.0 mi SW 4.6 mph - N/A   Clear
8:15 PM 27.7 °F 22.4 °F 21.2 °F 77% 30.36 in 10.0 mi SW 4.6 mph - N/A   Clear
8:35 PM 26.8 °F 22.8 °F 20.3 °F 77% 30.36 in 10.0 mi SW 3.5 mph - N/A   Clear
8:55 PM 26.6 °F 22.6 °F 21.4 °F 81% 30.35 in 10.0 mi SSW 3.5 mph - N/A   Clear
9:15 PM 26.1 °F 21.9 °F 20.3 °F 79% 30.36 in 10.0 mi SW 3.5 mph - N/A   Clear
9:35 PM 26.6 °F - 21.0 °F 79% 30.36 in 10.0 mi Calm Calm - N/A   Clear
9:55 PM 24.8 °F - 21.2 °F 86% 30.35 in 10.0 mi Calm Calm - N/A   Clear
10:15 PM 24.8 °F 20.5 °F 21.2 °F 86% 30.36 in 10.0 mi SW 3.5 mph - N/A   Clear
10:35 PM 23.0 °F 18.4 °F 19.6 °F 87% 30.36 in 10.0 mi SSW 3.5 mph - N/A   Clear
10:55 PM 23.4 °F 17.4 °F 20.7 °F 89% 30.36 in 10.0 mi SW 4.6 mph - N/A   Clear
11:15 PM 24.8 °F 20.5 °F 21.2 °F 86% 30.36 in 10.0 mi SSW 3.5 mph - N/A   Clear
11:35 PM 24.3 °F - 20.3 °F 85% 30.36 in 10.0 mi Calm Calm - N/A   Clear
11:55 PM 23.4 °F 18.9 °F 20.3 °F 88% 30.36 in 10.0 mi South 3.5 mph - N/A   Clear